Location: Dana
(41.8364°N, 106.7042°W)
Time: 02:13:33
(UTC+00:00)

Altair - Pass Details

Date: 16 May 2026
Orbit: 1501 x 1682 km, 47.2° (Epoch: 6 June)

Event Time Altitude Azimuth Distance (km) Brightness Sun altitude
Rises 18:34:15 0° 297° (WNW) 4,938 10.0 66.6°
Reaches altitude 10° 18:37:35 10° 292° (WNW) 3,948 9.6 66.8°
Maximum altitude 18:47:03 47° 223° (SW) 2,117 9.4 67.1°
Drops below altitude 10° 18:56:21 10° 154° (SSE) 3,866 10.1 67.4°
Sets 18:59:36 0° 148° (SSE) 4,828 10.4 67.4°
